Location: Musselshell
(46.5176°N, 108.0911°W)
Time: 14:30:41
(UTC+00:00)

AO-91 - Pass Details

Date: 26 June 2022
Orbit: 450 x 796 km, 97.7° (Epoch: 17 August)

Event Time Altitude Azimuth Distance (km) Brightness Sun altitude
Rises 07:22:17 0° 355° (N) 2,629 ? -20.1°
Reaches altitude 10° 07:25:26 10° 326° (NW) 1,677 ? -20.1°
Maximum altitude 07:27:00 13° 299° (WNW) 1,498 ? -20.1°
Drops below altitude 10° 07:28:32 10° 273° (W) 1,627 ? -20.1°
Enters shadow 07:28:56 - 267° (W) 1,707 ? -20.1°
